Hot Springs, VA

7:27 AM EST on December 13, 2017 (GMT -0500)
Ingalls

Weather History for KHSP - January, 2007

Change the Weather History Date:

Wednesday, January 17, 2007

  Actual Average Record
Temperature  
Mean Temperature 20 °F -  
Max Temperature 28 °F 29 °F 53 °F (2017)
Min Temperature 12 °F 16 °F -14 °F (1997)
Degree Days  
Heating Degree Days 45    
Moisture  
Dew Point 15 °F    
Average Humidity 81    
Maximum Humidity 100    
Minimum Humidity 55    
Precipitation  
Precipitation 0.00 in - - ()
Sea Level Pressure  
Sea Level Pressure 30.44 in    
Wind  
Wind Speed 13 mph (West)    
Max Wind Speed 23 mph    
Max Gust Speed 33 mph    
Visibility 10 miles    
Events Snow    
Averages and records for this station are not official NWS values.
T = Trace of Precipitation, MM = Missing Value Source: NWS Daily Summary

Daily Weather History Graph

Daily Weather History Graph

Search for Another Location

Airport or City:

Trip Planner

Search our weather history database for the weather conditions in past years. The results will help you decide how hot, cold, wet, or windy it might be!

Date:

Astronomy

Jan. 17, 2007 Rise Set
Actual Time 7:33 AM EST 5:25 PM EST
Civil Twilight 7:04 AM EST 5:54 PM EST
Nautical Twilight 6:32 AM EST 6:26 PM EST
Astronomical Twilight 6:00 AM EST 6:58 PM EST
Moon 6:37 AM EST (1/17) 3:41 PM EST (1/17)
Length of Visible Light 10h 49m
Length of Day
9h 52m
Waning Crescent, 3% of the Moon is Illuminated
Jan 17
Waning Crescent
Jan 18
New
Jan 25
First Quarter
Feb 2
Full
Feb 10
Last Quarter

Hourly Weather History & Observations

Time (EST) Temp. Windchill Dew Point Humidity Pressure Visibility Wind Dir Wind Speed Gust Speed Precip Events Conditions
12:00 AM 19.4 °F 4.5 °F 19.4 °F 100% 30.31 in 10.0 mi WNW 17.3 mph 24.2 mph N/A Snow Light Snow
12:20 AM 19.4 °F 5.0 °F 19.4 °F 100% 30.30 in 10.0 mi NW 16.1 mph 25.3 mph N/A Snow Light Snow
12:40 AM 19.4 °F 3.6 °F 19.4 °F 100% 30.31 in 7.0 mi NW 19.6 mph 27.6 mph N/A Snow Light Snow
1:00 AM 19.4 °F 4.5 °F 17.6 °F 93% 30.31 in 10.0 mi NW 17.3 mph 23.0 mph N/A Snow Light Snow
1:20 AM 19.4 °F 6.6 °F 19.4 °F 100% 30.32 in 7.0 mi NW 12.7 mph 26.5 mph N/A Snow Light Snow
1:40 AM 19.4 °F 6.6 °F 19.4 °F 100% 30.33 in 10.0 mi NW 12.7 mph 21.9 mph N/A Snow Light Snow
2:00 AM 17.6 °F 0.9 °F 17.6 °F 100% 30.33 in 10.0 mi NW 20.7 mph 27.6 mph N/A Snow Light Snow
2:20 AM 15.8 °F -2.3 °F 15.8 °F 100% 30.33 in 10.0 mi NW 23.0 mph 33.4 mph N/A   Scattered Clouds
2:40 AM 15.8 °F 0.3 °F 15.8 °F 100% 30.34 in 10.0 mi NW 16.1 mph 26.5 mph N/A   Clear
3:00 AM 15.8 °F -0.6 °F 15.8 °F 100% 30.37 in 10.0 mi NW 18.4 mph - N/A   Scattered Clouds
3:20 AM 15.8 °F -0.2 °F 14.0 °F 93% 30.36 in 10.0 mi NW 17.3 mph 23.0 mph N/A   Clear
4:00 AM 14.0 °F -3.4 °F 14.0 °F 100% 30.37 in 10.0 mi WNW 19.6 mph 24.2 mph N/A   Clear
4:20 AM 14.0 °F -0.8 °F 14.0 °F 100% 30.38 in 10.0 mi WNW 13.8 mph 17.3 mph N/A   Clear
4:40 AM 14.0 °F -1.4 °F 12.2 °F 93% 30.38 in 10.0 mi NW 15.0 mph 20.7 mph N/A   Clear
5:00 AM 14.0 °F -3.4 °F 12.2 °F 93% 30.38 in 10.0 mi WNW 19.6 mph - N/A   Clear
5:20 AM 12.2 °F -4.8 °F 12.2 °F 100% 30.37 in 10.0 mi WNW 17.3 mph 23.0 mph N/A   Clear
6:00 AM 12.2 °F -4.3 °F 12.2 °F 100% 30.40 in 10.0 mi WNW 16.1 mph - N/A   Clear
6:20 AM 12.2 °F -4.3 °F 12.2 °F 100% 30.40 in 10.0 mi WNW 16.1 mph - N/A   Clear
6:40 AM 12.2 °F -6.7 °F 12.2 °F 100% 30.41 in 10.0 mi WNW 21.9 mph 26.5 mph N/A   Clear
7:00 AM 12.2 °F -5.3 °F 12.2 °F 100% 30.42 in 10.0 mi WNW 18.4 mph - N/A   Clear
7:20 AM 12.2 °F -4.3 °F 12.2 °F 100% 30.42 in 10.0 mi WNW 16.1 mph - N/A   Clear
7:40 AM 12.2 °F -6.3 °F 12.2 °F 100% 30.44 in 10.0 mi WNW 20.7 mph - N/A   Clear
8:00 AM 12.2 °F -4.8 °F 12.2 °F 100% 30.44 in 10.0 mi WNW 17.3 mph - N/A   Clear
8:20 AM 12.2 °F -3.1 °F 12.2 °F 100% 30.44 in 10.0 mi WNW 13.8 mph - N/A   Clear
9:00 AM 15.8 °F 8.6 °F 10.4 °F 79% 30.45 in 10.0 mi North 4.6 mph - N/A   Clear
9:20 AM 17.6 °F 10.7 °F 10.4 °F 73% 30.46 in 10.0 mi NNE 4.6 mph - N/A   Clear
9:40 AM 19.4 °F 10.4 °F 10.4 °F 68% 30.46 in 10.0 mi North 6.9 mph - N/A   Clear
10:00 AM 19.4 °F 11.5 °F 12.2 °F 74% 30.47 in 10.0 mi North 5.8 mph - N/A   Clear
10:20 AM 21.2 °F - 14.0 °F 74% 30.48 in 10.0 mi Calm Calm - N/A   Clear
10:40 AM 19.4 °F 12.8 °F 15.8 °F 86% 30.50 in 10.0 mi SSE 4.6 mph - N/A   Clear
11:00 AM 21.2 °F 11.7 °F 15.8 °F 80% 30.52 in 10.0 mi South 8.1 mph - N/A   Clear
11:20 AM 21.2 °F 12.6 °F 15.8 °F 80% 30.53 in 10.0 mi South 6.9 mph - N/A   Clear
11:40 AM 23.0 °F 17.0 °F 17.6 °F 80% 30.53 in 10.0 mi SSE 4.6 mph - N/A   Clear
12:00 PM 21.2 °F 16.4 °F 15.8 °F 80% 30.52 in 10.0 mi WSW 3.5 mph - N/A   Clear
12:20 PM 23.0 °F - 15.8 °F 74% 30.51 in 10.0 mi Calm Calm - N/A   Clear
12:40 PM 24.8 °F 20.5 °F 17.6 °F 74% 30.50 in 10.0 mi WNW 3.5 mph - N/A   Clear
1:00 PM 24.8 °F 20.5 °F 15.8 °F 69% 30.49 in 10.0 mi West 3.5 mph - N/A   Clear
1:20 PM 24.8 °F - 15.8 °F 69% 30.48 in 10.0 mi Calm Calm - N/A   Clear
1:40 PM 28.4 °F 22.2 °F 17.6 °F 64% 30.48 in 10.0 mi SE 5.8 mph - N/A   Clear
2:00 PM 28.4 °F - 17.6 °F 64% 30.48 in 10.0 mi Calm Calm - N/A   Clear
2:20 PM 28.4 °F 23.3 °F 17.6 °F 64% 30.48 in 10.0 mi ESE 4.6 mph - N/A   Clear
2:40 PM 28.4 °F 24.6 °F 17.6 °F 64% 30.48 in 10.0 mi SE 3.5 mph - N/A   Clear
3:00 PM 28.4 °F 24.6 °F 17.6 °F 64% 30.49 in 10.0 mi SSE 3.5 mph - N/A   Clear
3:20 PM 28.4 °F 23.3 °F 15.8 °F 59% 30.49 in 10.0 mi SSE 4.6 mph - N/A   Clear
3:40 PM 28.4 °F 24.6 °F 15.8 °F 59% 30.49 in 10.0 mi ESE 3.5 mph - N/A   Clear
4:00 PM 28.4 °F 23.3 °F 15.8 °F 59% 30.49 in 10.0 mi ESE 4.6 mph - N/A   Clear
4:20 PM 28.4 °F - 15.8 °F 59% 30.49 in 10.0 mi Calm Calm - N/A   Clear
5:00 PM 26.6 °F - 14.0 °F 59% 30.49 in 10.0 mi Calm Calm - N/A   Clear
5:20 PM 26.6 °F 22.6 °F 12.2 °F 55% 30.49 in 10.0 mi SE 3.5 mph - N/A   Clear
5:40 PM 24.8 °F 17.9 °F 12.2 °F 59% 30.49 in 10.0 mi ESE 5.8 mph - N/A   Clear
6:00 PM 24.8 °F 16.9 °F 12.2 °F 59% 30.49 in 10.0 mi SE 6.9 mph - N/A   Clear
6:40 PM 24.8 °F 14.6 °F 14.0 °F 64% 30.48 in 10.0 mi SE 10.4 mph - N/A   Clear
7:00 PM 23.0 °F 12.4 °F 14.0 °F 68% 30.48 in 10.0 mi SE 10.4 mph - N/A   Clear
7:20 PM 23.0 °F 12.4 °F 15.8 °F 74% 30.50 in 10.0 mi SSE 10.4 mph - N/A   Clear
7:40 PM 23.0 °F 12.4 °F 14.0 °F 68% 30.50 in 10.0 mi SSE 10.4 mph - N/A   Clear
8:00 PM 21.2 °F 10.1 °F 14.0 °F 74% 30.50 in 10.0 mi SSE 10.4 mph - N/A   Clear
8:20 PM 21.2 °F 10.9 °F 15.8 °F 80% 30.50 in 10.0 mi SSE 9.2 mph - N/A   Clear
9:00 PM 21.2 °F 10.1 °F 14.0 °F 74% 30.48 in 10.0 mi SSE 10.4 mph - N/A   Clear
9:20 PM 21.2 °F 9.5 °F 15.8 °F 80% 30.47 in 10.0 mi SSE 11.5 mph - N/A   Clear
9:40 PM 21.2 °F 12.6 °F 15.8 °F 80% 30.48 in 10.0 mi SSE 6.9 mph - N/A   Clear
10:00 PM 21.2 °F 10.9 °F 17.6 °F 86% 30.47 in 10.0 mi SSE 9.2 mph - N/A   Clear
10:20 PM 21.2 °F 10.9 °F 17.6 °F 86% 30.48 in 10.0 mi SSE 9.2 mph - N/A   Clear
10:40 PM 21.2 °F 11.7 °F 17.6 °F 86% 30.47 in 10.0 mi SSE 8.1 mph - N/A   Clear
11:00 PM 19.4 °F 7.2 °F 15.8 °F 86% 30.46 in 10.0 mi SE 11.5 mph - N/A   Clear
11:20 PM 19.4 °F 7.9 °F 15.8 °F 86% 30.46 in 10.0 mi SSE 10.4 mph - N/A   Clear